Regional Weather Roundup
Issued by NWS

Home | Current Version | Previous Version | Graphics & Text | Print | Product List | Glossary On
Versions: 1 2 3 4 5 6 7 8 9 10 11 12 13 14 15 16 17 18 19 20 21 22 23 24 25 26 27 28 29 30 31 32 33 34 35 36 37 38 39 40 41 42 43 44 45 46 47 48 49 50
000
ASUS43 KIND 130559
RWRIN

WEATHER ROUNDUP FOR INDIANA
NATIONAL WEATHER SERVICE INDIANAPOLIS IN
100 AM EST SAT FEB 13 2016

NOTE: "FAIR" INDICATES FEW OR NO CLOUDS BELOW 12,000 FEET WITH NO
SIGNIFICANT WEATHER AND/OR OBSTRUCTIONS TO VISIBILITY.

* - STATION DOES NOT REPORT WEATHER SUCH AS PRECIPITATION OR FOG.

+ - STATION NOT QUALITY CONTROLLED BY THE NATIONAL WEATHER SERVICE.
    USE DATA WITH CAUTION...ESPECIALLY DEWPOINT AND RELATIVE
    HUMIDITY OBSERVATIONS.

INZ001>003-010>013-019-020-130700-
NORTHWEST INDIANA

CITY           SKY/WX    TMP DP  RH WIND       PRES   REMARKS
MONTICELLO +   CLEAR     11  -5  47 NW15G21   30.40R WCI  -5
6HR MIN TEMP:  11; 6HR MAX TEMP:  20;

RENSSELAER +   CLEAR     12  -9  37 NW13G21   30.43R WCI  -3

$$

LMZ046-743>745-130700-
SOUTHERN LAKE MICHIGAN

STATION/POSITION TIME  TEMP    WIND        PRES    WAVE
                       AIR SEA DIR/SP/G            HT
                 (UTC) (F)     (DEG/KT/KT) (MB)    (FT)
BURNS HARBOR     0505   15     330/ 22     1029.5R
MICHIGAN CITY    0500   15     310/ 30/ 36   N/A

$$

INZ004-005-014>016-021>024-130700-
NORTH CENTRAL INDIANA

CITY           SKY/WX    TMP DP  RH WIND       PRES   REMARKS
GOSHEN         LGT SNOW  11   5  77 N16       30.34R WCI  -6
6HR MIN TEMP:  11; 6HR MAX TEMP:  16; 6HR PCP: TRACE;

SOUTH BEND     LGT SNOW  11   8  88 NW12      30.35R VSB 3/4 WCI  -3
6HR MIN TEMP:  11; 6HR MAX TEMP:  16; 6HR PCP:  0.01;


$$

INZ006>009-017-018-025>027-130700-
NORTHEAST INDIANA

CITY           SKY/WX    TMP DP  RH WIND       PRES   REMARKS
ANGOLA *+      CLEAR      7  -2  66 N5        30.28R WCI  -2
FORT WAYNE     LGT SNOW  13   8  81 NW13G24   30.31R WCI  -2
6HR MIN TEMP:  13; 6HR MAX TEMP:  18; 6HR PCP:  0.01;


$$

INZ028-029-035-036-043>045-051>053-130700-
WEST CENTRAL INDIANA

CITY           SKY/WX    TMP DP  RH WIND       PRES   REMARKS
CRAWFORDSVL +  CLEAR     12  -6  45 NW15      30.40R WCI  -4
6HR MIN TEMP:  12; 6HR MAX TEMP:  21;

GREENCASTLE +  CLEAR     16   0  48 NW8       30.40R WCI   5
LAFAYETTE      CLEAR     12  -4  48 NW13G21   30.42R WCI  -3
6HR MIN TEMP:  12; 6HR MAX TEMP:  20;

TERRE HAUTE    CLEAR     16   4  59 NW13G21   30.44R WCI   2
6HR MIN TEMP:  16; 6HR MAX TEMP:  25; 6HR PCP: TRACE;


$$

INZ030>032-037>040-046>048-054>057-064-065-130700-
CENTRAL INDIANA

CITY           SKY/WX    TMP DP  RH WIND       PRES   REMARKS
FRANKFORT +    PTCLDY    13  -8  38 NW15G22   30.39R WCI  -2
6HR MIN TEMP:  13; 6HR MAX TEMP:  22;

GREENWOOD *+   PTCLDY    18   5  57 NW12G18   30.37R WCI   5
INDIANAPOLIS   PTCLDY    15   0  51 NW15      30.36R WCI   0
6HR MIN TEMP:  15; 6HR MAX TEMP:  23; 6HR PCP: TRACE;

-EAGLE CREEK   CLEAR     15   0  51 NW14      30.37R WCI   0
6HR MIN TEMP:  15; 6HR MAX TEMP:  22;

KOKOMO *+      CLEAR     12   1  62 NW18      30.35R WCI  -5
6HR MIN TEMP:  12; 6HR MAX TEMP:  19;

MT COMFORT *+  PTCLDY    14   1  57 NW10G18   30.36R WCI   1
SHELBYVILLE    LGT SNOW  18   7  62 NW17      30.35R WCI   3
6HR MIN TEMP:  17; 6HR MAX TEMP:  24; 6HR PCP: TRACE;


$$

INZ033-034-041-042-049-050-058-059-130700-
EAST CENTRAL INDIANA

CITY           SKY/WX    TMP DP  RH WIND       PRES   REMARKS
MUNCIE         CLEAR     14   3  61 NW15      30.32R WCI  -1
6HR MIN TEMP:  14; 6HR MAX TEMP:  22; 6HR PCP: TRACE;


$$

INZ060-061-067>069-081>083-085>088-130700-
SOUTHWEST INDIANA

CITY           SKY/WX    TMP DP  RH WIND       PRES   REMARKS
EVANSVILLE     PTCLDY    23   5  46 N16G23    30.46R WCI  10
6HR MIN TEMP:  23; 6HR MAX TEMP:  29;

HUNTINGBURG *+ CLEAR     19   3  49 NW16G25   30.43R WCI   5
6HR MIN TEMP:  19; 6HR MAX TEMP:  28;


$$

INZ062-063-066-070>080-084-089>092-130700-
SOUTH CENTRAL AND SOUTHEAST INDIANA

CITY           SKY/WX    TMP DP  RH WIND       PRES   REMARKS
BLOOMINGTON    CLEAR     17   3  54 VRB7      30.38R WCI   8
6HR MIN TEMP:  17; 6HR MAX TEMP:  24;

MADISON *+     MOCLDY    21   5  49 NW10G20   30.36R WCI  10
SEYMOUR +      CLEAR     21   5  49 NW14G22   30.38R WCI   8

$$




USA.gov is the U.S. government's official web portal to all federal, state and local government web resources and services.